This is the latest recevied weather packets stored in our database for station/object SP1BMW-13. If no packets are shown the sender has not sent any weather packets the latest 10 day(s).
| Time | Temp. | Humidity | Pressure | Rain* | Wind** | Luminosity | Snow |
|---|---|---|---|---|---|---|---|
| 1777483679 | 12.78° C | 35% | 1029.1 hPa | 0 mm | 0.89 m/s, 81° | 35 W/m² | - |
| 1777483619 | 12.78° C | 35% | 1029.2 hPa | 0 mm | 0.89 m/s, 333° | 38 W/m² | - |
| 1777483559 | 12.78° C | 35% | 1029.1 hPa | 0 mm | 0.89 m/s, 7° | 40 W/m² | - |
| 1777483499 | 12.78° C | 35% | 1029.1 hPa | 0 mm | 0.89 m/s, 40° | 49 W/m² | - |
| 1777483439 | 12.78° C | 34% | 1029.1 hPa | 0 mm | 0.89 m/s, 329° | 51 W/m² | - |
| 1777483380 | 12.78° C | 34% | 1029 hPa | 0 mm | 0.89 m/s, 302° | 53 W/m² | - |
| 1777483319 | 12.78° C | 34% | 1029.3 hPa | 0 mm | 1.79 m/s, 305° | 55 W/m² | - |
| 1777483259 | 12.78° C | 34% | 1029.1 hPa | 0 mm | 1.79 m/s, 285° | 58 W/m² | - |
| 1777483199 | 12.78° C | 34% | 1029.1 hPa | 0 mm | 1.79 m/s, 295° | 59 W/m² | - |
| 1777483140 | 12.78° C | 34% | 1029.2 hPa | 0 mm | 1.79 m/s, 15° | 61 W/m² | - |
| 1777483079 | 12.78° C | 34% | 1029.3 hPa | 0 mm | 0.89 m/s, 56° | 63 W/m² | - |
| 1777483019 | 12.78° C | 34% | 1029.2 hPa | 0 mm | 1.34 m/s, 319° | 64 W/m² | - |
| 1777482960 | 12.78° C | 34% | 1029.1 hPa | 0 mm | 1.34 m/s, 24° | 66 W/m² | - |
| 1777482899 | 12.78° C | 33% | 1029.2 hPa | 0 mm | 2.68 m/s, 324° | 68 W/m² | - |
| 1777482839 | 12.78° C | 33% | 1029.2 hPa | 0 mm | 3.13 m/s, 310° | 69 W/m² | - |
| 1777482779 | 12.78° C | 34% | 1029.3 hPa | 0 mm | 1.79 m/s, 311° | 71 W/m² | - |
| 1777482720 | 12.78° C | 33% | 1029.4 hPa | 0 mm | 1.79 m/s, 281° | 73 W/m² | - |
| 1777482659 | 12.78° C | 34% | 1029.3 hPa | 0 mm | 1.34 m/s, 269° | 75 W/m² | - |
| 1777482599 | 12.78° C | 33% | 1029.2 hPa | 0 mm | 1.79 m/s, 327° | 76 W/m² | - |
| 1777482540 | 12.78° C | 33% | 1029.4 hPa | 0 mm | 2.24 m/s, 225° | 78 W/m² | - |
| 1777482480 | 13.33° C | 34% | 1029.2 hPa | 0 mm | 0.89 m/s, 269° | 80 W/m² | - |
| 1777482420 | 13.33° C | 33% | 1029 hPa | 0 mm | 0.89 m/s, 43° | 81 W/m² | - |
| 1777482359 | 13.33° C | 32% | 1029.1 hPa | 0 mm | 2.68 m/s, 326° | 83 W/m² | - |
| 1777482300 | 13.33° C | 33% | 1029.1 hPa | 0 mm | 1.79 m/s, 304° | 85 W/m² | - |
| 1777482239 | 13.33° C | 33% | 1029.3 hPa | 0 mm | 1.79 m/s, 323° | 87 W/m² | - |
* Rain latest hour (hover to see other rain measurements)
** Current wind speed in m/s (hover to see current wind gust speed)